Other Surface Observations
Issued by NWS Charleston, SC

Home | Current Version | Previous Version | Text Only | Print | Product List | Glossary On
Versions: 1 2 3 4 5 6 7 8 9 10 11 12 13 14 15 16 17 18 19 20 21 22 23 24 25 26 27 28 29 30 31 32 33 34 35 36 37 38 39 40 41 42 43 44 45 46 47 48 49 50
000
SXUS52 KCHS 022012
OSOCHS

MARINE OBSERVATIONS
NATIONAL WEATHER SERVICE CHARLESTON SC
300 PM EST FRI DEC 02 2016

...DOWNTOWN CHARLESTON AND HARBOR...

CITY           SKY/WX    TMP DP  RH WIND       PRES   REMARKS
WATERFRONT PRK   N/A     60  40  47 N7        30.12F

...LAKE MOULTRIE...

CITY           SKY/WX    TMP DP  RH WIND       PRES   REMARKS
PINOPOLIS        N/A     57  37  47 NW10      30.05F

...LAKE AND SUPPLEMENTAL COASTAL OBSERVATIONS...

STATION/POSITION TIME  TEMP    WIND        PRES    WAVE   SWELL
                       AIR SEA DIR/SP/G            HT/PER HT/PER/DIR
                 (UTC) (F)     (DEG/KT/KT) (MB)    (FT/S) (FT/S/D)
FORT PULASKI     1948   60 63  360/ 10/ 13 1020.7S
SAPELO ISLAND    1900   64     330/  7     1021.0
WINYAH BAY       1845   57     320/  7     1020.0
LAKE MURRAY      1920   59     290/  6/ 17 1020.3F
ACE BASIN NERRS  1845   61     330/  3     1020.0


...C-MAN AND BUOY OBSERVATIONS...

STATION/POSITION TIME  TEMP    WIND        PRES    WAVE   SWELL
                       AIR SEA DIR/SP/G            HT/PER HT/PER/DIR
                 (UTC) (F)     (DEG/KT/KT) (MB)    (FT/S) (FT/S/D)
BUOY 41004       1850   58 74   10/ 14/ 17 1019.6    4/ 5   2/140/ 9
BUOY 41008       1850   57 65  320/ 10/ 14 1020.6    2/ 9   2/ 80/ 9
FOLLY BEACH CMAN 1900   59     350/  6/  8 1021.0F
CAPERS NS BUOY   1908   57 63   40/  4/  6 1020.1F
FRIPP NS BUOY    1908   58 63   10/  8/ 10 1020.4F
5E ST. MARYS GA  2000      67                N/A     2/ 9


STATION/POSITION TIME  TEMP    WIND        PRES    WAVE   SWELL
                       AIR SEA DIR/SP/G            HT/PER HT/PER/DIR
                 (UTC) (F)     (DEG/KT/KT) (MB)    (FT/S) (FT/S/D)
FRYING PAN BUOY  1920   57 74  340/ 14/ 16 1018.9
BUOY 41025       1850   55 77  340/ 10/ 16 1017.6    4/ 7   3/ 60/ 7
CAPE LOOKOUT NC  1900   55     330/  6/  7 1017.9F
BUOY 41002       1850   70 74  310/ 14/ 17 1016.3    5/ 7   3/250/ 7
BUOY 41010       NOT AVBL
ST AUGUSTINE FL  1900   60 67   10/ 10/ 12 1021.5F

$$




USA.gov is the U.S. government's official web portal to all federal, state and local government web resources and services.